TimeCDT,TemperatureF,Dew PointF,Humidity,Sea Level PressureIn,VisibilityMPH,Wind Direction,Wind SpeedMPH,Gust SpeedMPH,PrecipitationIn,Events,Conditions,WindDirDegrees,DateUTC
12:15 AM,17.6,17.6,100,29.50,3.0,SE,15.0,-,N/A,,Overcast,140,2013-03-18 05:15:00
12:35 AM,19.4,17.6,93,29.50,10.0,SE,10.4,-,N/A,,Overcast,140,2013-03-18 05:35:00
12:55 AM,19.4,19.4,100,29.49,8.0,SE,9.2,-,N/A,,Overcast,130,2013-03-18 05:55:00
1:15 AM,19.4,17.6,93,29.49,10.0,ESE,4.6,-,N/A,,Overcast,120,2013-03-18 06:15:00
1:35 AM,19.4,17.6,93,29.49,10.0,SE,5.8,-,N/A,,Overcast,130,2013-03-18 06:35:00
1:55 AM,19.4,17.6,93,29.49,2.5,ENE,3.5,-,N/A,,Overcast,60,2013-03-18 06:55:00
2:15 AM,19.4,17.6,93,29.48,3.0,Calm,Calm,-,N/A,,Overcast,0,2013-03-18 07:15:00
2:35 AM,19.4,17.6,93,29.48,3.0,Calm,Calm,-,N/A,,Overcast,0,2013-03-18 07:35:00
2:55 AM,17.6,15.8,93,29.49,6.0,NW,6.9,-,N/A,,Overcast,320,2013-03-18 07:55:00
3:15 AM,19.4,17.6,93,29.49,3.0,NNW,9.2,-,N/A,,Overcast,330,2013-03-18 08:15:00
3:35 AM,17.6,15.8,93,29.49,2.5,NNW,15.0,-,N/A,,Overcast,330,2013-03-18 08:35:00
3:55 AM,15.8,14.0,93,29.49,6.0,NW,18.4,-,N/A,,Mostly Cloudy,320,2013-03-18 08:55:00
4:15 AM,15.8,14.0,93,29.49,4.0,NNW,21.9,-,N/A,,Overcast,330,2013-03-18 09:15:00
5:15 AM,12.2,10.4,92,29.52,2.0,NNW,25.3,31.1,N/A,,Overcast,330,2013-03-18 10:15:00
5:35 AM,12.2,10.4,92,29.53,1.5,NNW,25.3,-,N/A,,Overcast,330,2013-03-18 10:35:00
6:55 AM,8.6,6.8,92,29.58,1.0,NW,26.5,33.4,N/A,,Overcast,320,2013-03-18 11:55:00
7:15 AM,8.6,6.8,92,29.59,1.0,NNW,28.8,33.4,N/A,,Overcast,330,2013-03-18 12:15:00
8:15 AM,8.6,5.0,85,29.61,0.5,NW,25.3,32.2,N/A,,Overcast,320,2013-03-18 13:15:00
8:55 AM,6.8,5.0,92,29.62,0.8,NW,28.8,-,N/A,,Mostly Cloudy,320,2013-03-18 13:55:00
9:15 AM,6.8,3.2,85,29.64,0.8,NW,24.2,33.4,N/A,,Overcast,320,2013-03-18 14:15:00
9:35 AM,6.8,3.2,85,29.64,0.8,NW,26.5,32.2,N/A,,Overcast,320,2013-03-18 14:35:00
9:55 AM,6.8,3.2,85,29.65,0.8,NW,27.6,32.2,N/A,,Overcast,320,2013-03-18 14:55:00
10:15 AM,6.8,3.2,85,29.66,0.8,NW,28.8,32.2,N/A,,Overcast,320,2013-03-18 15:15:00
10:35 AM,6.8,3.2,85,29.67,0.5,NNW,32.2,35.7,N/A,,Overcast,330,2013-03-18 15:35:00
10:55 AM,8.6,3.2,79,29.68,0.5,NNW,29.9,36.8,N/A,,Overcast,330,2013-03-18 15:55:00
11:15 AM,8.6,5.0,85,29.69,0.5,NNW,32.2,36.8,N/A,,Mostly Cloudy,330,2013-03-18 16:15:00
11:35 AM,8.6,5.0,85,29.70,0.5,NNW,32.2,35.7,N/A,,Overcast,330,2013-03-18 16:35:00
11:55 AM,8.6,5.0,85,29.72,0.5,NNW,29.9,35.7,N/A,,Overcast,330,2013-03-18 16:55:00
12:15 PM,8.6,5.0,85,29.73,0.5,NNW,31.1,38.0,N/A,,Overcast,330,2013-03-18 17:15:00
12:35 PM,8.6,6.8,92,29.74,0.5,NNW,28.8,35.7,N/A,,Overcast,330,2013-03-18 17:35:00
12:55 PM,8.6,5.0,85,29.75,0.5,NW,32.2,-,N/A,,Overcast,320,2013-03-18 17:55:00
1:15 PM,10.4,5.0,79,29.75,0.5,NNW,28.8,34.5,N/A,,Mostly Cloudy,330,2013-03-18 18:15:00
1:35 PM,10.4,5.0,79,29.77,0.5,NNW,27.6,35.7,N/A,,Mostly Cloudy,330,2013-03-18 18:35:00
1:55 PM,10.4,5.0,79,29.77,0.8,NNW,29.9,36.8,N/A,,Mostly Cloudy,340,2013-03-18 18:55:00
2:15 PM,10.4,5.0,79,29.78,2.0,NNW,23.0,-,N/A,,Clear,330,2013-03-18 19:15:00
2:35 PM,10.4,3.2,73,29.79,5.0,NNW,21.9,-,N/A,,Partly Cloudy,330,2013-03-18 19:35:00
2:55 PM,10.4,6.8,85,29.80,4.0,NNW,21.9,26.5,N/A,,Mostly Cloudy,330,2013-03-18 19:55:00
3:15 PM,10.4,5.0,79,29.80,2.0,NNW,25.3,-,N/A,,Overcast,330,2013-03-18 20:15:00
3:35 PM,10.4,5.0,79,29.81,3.0,NNW,21.9,29.9,N/A,,Mostly Cloudy,330,2013-03-18 20:35:00
3:55 PM,10.4,5.0,79,29.81,2.0,NNW,27.6,-,N/A,,Mostly Cloudy,330,2013-03-18 20:55:00
4:15 PM,10.4,5.0,79,29.81,2.0,NNW,24.2,-,N/A,,Clear,330,2013-03-18 21:15:00
4:35 PM,10.4,5.0,79,29.82,3.0,NNW,25.3,31.1,N/A,,Clear,330,2013-03-18 21:35:00
4:55 PM,10.4,5.0,79,29.83,3.0,NNW,24.2,29.9,N/A,,Clear,330,2013-03-18 21:55:00
5:15 PM,10.4,3.2,73,29.84,5.0,NNW,25.3,-,N/A,,Clear,330,2013-03-18 22:15:00
5:35 PM,10.4,3.2,73,29.84,8.0,NNW,21.9,-,N/A,,Clear,330,2013-03-18 22:35:00
5:55 PM,10.4,3.2,73,29.85,10.0,NW,18.4,-,N/A,,Clear,320,2013-03-18 22:55:00
6:15 PM,10.4,3.2,73,29.86,10.0,NW,16.1,-,N/A,,Clear,320,2013-03-18 23:15:00
6:35 PM,8.6,3.2,79,29.87,10.0,NW,13.8,-,N/A,,Clear,320,2013-03-18 23:35:00
6:55 PM,8.6,3.2,79,29.88,10.0,WNW,12.7,-,N/A,,Clear,300,2013-03-18 23:55:00
7:15 PM,6.8,1.4,79,29.88,10.0,NW,15.0,-,N/A,,Clear,310,2013-03-19 00:15:00
7:35 PM,8.6,1.4,73,29.88,10.0,NW,17.3,-,N/A,,Clear,310,2013-03-19 00:35:00
7:55 PM,6.8,1.4,79,29.89,10.0,WNW,15.0,-,N/A,,Clear,300,2013-03-19 00:55:00
8:15 PM,5.0,1.4,85,29.90,10.0,WNW,12.7,-,N/A,,Clear,300,2013-03-19 01:15:00
8:35 PM,3.2,1.4,92,29.91,10.0,NW,12.7,-,N/A,,Clear,310,2013-03-19 01:35:00
8:55 PM,3.2,-0.4,85,29.91,10.0,NW,16.1,-,N/A,,Clear,310,2013-03-19 01:55:00
9:15 PM,1.4,-4.0,78,29.92,10.0,WNW,12.7,-,N/A,,Clear,300,2013-03-19 02:15:00
9:35 PM,1.4,-2.2,85,29.92,10.0,WNW,12.7,-,N/A,,Clear,300,2013-03-19 02:35:00
9:55 PM,1.4,-2.2,85,29.93,10.0,WNW,12.7,-,N/A,,Clear,300,2013-03-19 02:55:00
10:15 PM,-0.4,-5.8,78,29.94,10.0,WNW,12.7,-,N/A,,Clear,300,2013-03-19 03:15:00
10:35 PM,-0.4,-5.8,78,29.94,10.0,WNW,13.8,-,N/A,,Clear,300,2013-03-19 03:35:00
10:55 PM,-0.4,-2.2,92,29.95,10.0,NW,11.5,-,N/A,,Clear,310,2013-03-19 03:55:00
11:15 PM,-2.2,-11.2,66,29.95,10.0,WNW,13.8,-,N/A,,Clear,300,2013-03-19 04:15:00
11:35 PM,-2.2,-5.8,85,29.95,10.0,WNW,10.4,-,N/A,,Clear,290,2013-03-19 04:35:00
11:55 PM,-2.2,-4.0,92,29.95,8.0,WNW,10.4,-,N/A,,Clear,300,2013-03-19 04:55:00